When you browse on this site, cookies collect data to enhance your experience and personalize the content and advertising you see.
Visit our Privacy Policy to learn more. By continuing to use the site, you agree to this use of cookies and data.
  • In Deutschland
  • Länderverzeichnis
  • Für 7 Tage
  • Wassertemperatur
  • Satellitenkarten
  • Wetterkarte
  • Widgets
  • user-avatar
    Anmelden

    Stündliche Wetter Baranovitschi

    Heute, 23 Januar, Mittwoch

    Zeit Temperatur Niederschläge Wind Luftdruck Luftfeuchtigkeit
    00:00 -7°C° 0 mm 2 m/S 745 mmHg 91%
    01:00 -8°C° 0 mm 2 m/S 745 mmHg 92%
    02:00 -9°C° 0 mm 2 m/S 745 mmHg 93%
    03:00 -10°C° 0 mm 2 m/S 744 mmHg 94%
    04:00 -13°C° 0 mm 3 m/S 744 mmHg 95%
    05:00 -14°C° 0 mm 3 m/S 744 mmHg 95%
    06:00 -14°C° 0 mm 3 m/S 744 mmHg 95%
    07:00 -14°C° 0 mm 3 m/S 743 mmHg 95%
    08:00 -15°C° 0 mm 3 m/S 743 mmHg 95%
    09:00 -14°C° 0 mm 3 m/S 743 mmHg 94%
    10:00 -15°C° 0 mm 4 m/S 743 mmHg 93%
    11:00 -14°C° 0 mm 4 m/S 743 mmHg 91%
    12:00 -12°C° 0 mm 4 m/S 743 mmHg 91%
    13:00 -12°C° 0 mm 4 m/S 742 mmHg 91%
    14:00 -11°C° 0 mm 4 m/S 742 mmHg 91%
    15:00 -11°C° 0 mm 4 m/S 742 mmHg 91%
    16:00 -12°C° 0 mm 4 m/S 742 mmHg 91%
    17:00 -12°C° 0 mm 4 m/S 742 mmHg 91%
    18:00 -12°C° 0 mm 4 m/S 742 mmHg 91%
    19:00 -12°C° 0 mm 4 m/S 742 mmHg 92%
    20:00 -12°C° 0 mm 4 m/S 742 mmHg 92%
    21:00 -12°C° 0 mm 3 m/S 742 mmHg 92%
    22:00 -12°C° 0 mm 3 m/S 742 mmHg 93%
    23:00 -12°C° 0 mm 3 m/S 742 mmHg 93%

    Morgen, 24 Januar, Donnerstag

    Zeit Temperatur Niederschläge Wind Luftdruck Luftfeuchtigkeit
    00:00 -12°C° 0 mm 3 m/S 742 mmHg 94%
    01:00 -13°C° 0 mm 3 m/S 742 mmHg 94%
    02:00 -13°C° 0 mm 3 m/S 743 mmHg 94%
    03:00 -13°C° 0 mm 3 m/S 743 mmHg 94%
    04:00 -13°C° 0 mm 3 m/S 743 mmHg 94%
    05:00 -13°C° 0 mm 3 m/S 743 mmHg 94%
    06:00 -13°C° 0 mm 3 m/S 743 mmHg 95%
    07:00 -13°C° 0 mm 3 m/S 743 mmHg 95%
    08:00 -13°C° 0 mm 3 m/S 743 mmHg 95%
    09:00 -13°C° 0 mm 3 m/S 744 mmHg 95%
    10:00 -13°C° 0 mm 3 m/S 744 mmHg 94%
    11:00 -12°C° 0 mm 4 m/S 744 mmHg 93%
    12:00 -12°C° 0 mm 4 m/S 744 mmHg 93%
    13:00 -12°C° 0 mm 4 m/S 744 mmHg 92%
    14:00 -11°C° 0 mm 4 m/S 744 mmHg 91%
    15:00 -11°C° 0 mm 4 m/S 744 mmHg 91%
    16:00 -12°C° 0 mm 4 m/S 744 mmHg 91%
    17:00 -12°C° 0 mm 4 m/S 744 mmHg 91%
    18:00 -12°C° 0 mm 4 m/S 744 mmHg 91%
    19:00 -12°C° 0 mm 4 m/S 745 mmHg 91%
    20:00 -14°C° 0 mm 4 m/S 745 mmHg 91%
    21:00 -14°C° 0 mm 4 m/S 745 mmHg 91%
    22:00 -14°C° 0 mm 5 m/S 745 mmHg 90%
    23:00 -14°C° 0 mm 5 m/S 745 mmHg 90%

    übermorgen, 25 Januar, Freitag

    Zeit Temperatur Niederschläge Wind Luftdruck Luftfeuchtigkeit
    00:00 -14°C° 0 mm 5 m/S 745 mmHg 90%
    01:00 -14°C° 0 mm 5 m/S 745 mmHg 90%
    02:00 -14°C° 0 mm 5 m/S 745 mmHg 91%
    03:00 -14°C° 0 mm 5 m/S 745 mmHg 91%
    04:00 -14°C° 0 mm 5 m/S 745 mmHg 90%
    05:00 -14°C° 0 mm 5 m/S 745 mmHg 90%
    06:00 -14°C° 0 mm 5 m/S 745 mmHg 91%
    07:00 -15°C° 0 mm 5 m/S 745 mmHg 91%
    08:00 -16°C° 0 mm 6 m/S 745 mmHg 91%
    09:00 -16°C° 0.1 mm 6 m/S 745 mmHg 91%
    10:00 -15°C° 0.1 mm 6 m/S 745 mmHg 91%
    11:00 -15°C° 0.1 mm 6 m/S 745 mmHg 92%
    12:00 -15°C° 0.5 mm 6 m/S 745 mmHg 92%
    13:00 -15°C° 0.5 mm 6 m/S 744 mmHg 93%
    14:00 -14°C° 0.5 mm 6 m/S 744 mmHg 93%
    15:00 -14°C° 0.4 mm 6 m/S 744 mmHg 93%
    16:00 -13°C° 0.4 mm 5 m/S 744 mmHg 93%
    17:00 -13°C° 0.4 mm 5 m/S 744 mmHg 94%
    18:00 -13°C° 0.7 mm 5 m/S 744 mmHg 94%
    19:00 -12°C° 0.7 mm 5 m/S 744 mmHg 94%
    20:00 -12°C° 0.7 mm 5 m/S 744 mmHg 94%
    21:00 -12°C° 0.6 mm 5 m/S 744 mmHg 94%
    22:00 -12°C° 0.6 mm 5 m/S 744 mmHg 93%
    23:00 -12°C° 0.6 mm 5 m/S 744 mmHg 93%

    26 Januar, Samstag

    Zeit Temperatur Niederschläge Wind Luftdruck Luftfeuchtigkeit
    00:00 -11°C° 0.1 mm 4 m/S 743 mmHg 93%
    01:00 -10°C° 0.1 mm 4 m/S 743 mmHg 93%
    02:00 -10°C° 0.1 mm 4 m/S 743 mmHg 93%
    03:00 -10°C° 0.1 mm 4 m/S 743 mmHg 94%
    04:00 -10°C° 0.1 mm 4 m/S 742 mmHg 94%
    05:00 -10°C° 0.1 mm 3 m/S 742 mmHg 94%
    06:00 -10°C° 0.2 mm 3 m/S 742 mmHg 95%
    07:00 -10°C° 0.2 mm 3 m/S 742 mmHg 95%
    08:00 -10°C° 0.2 mm 3 m/S 742 mmHg 96%
    09:00 -10°C° 0.2 mm 3 m/S 742 mmHg 95%
    10:00 -10°C° 0.2 mm 3 m/S 742 mmHg 95%
    11:00 -9°C° 0.2 mm 3 m/S 742 mmHg 95%
    12:00 -8°C° 0.1 mm 2 m/S 741 mmHg 94%
    13:00 -8°C° 0.1 mm 2 m/S 741 mmHg 94%
    14:00 -6°C° 0.1 mm 1 m/S 741 mmHg 94%
    15:00 -7°C° 0 mm 1 m/S 741 mmHg 95%
    16:00 -7°C° 0 mm 1 m/S 740 mmHg 96%
    17:00 -8°C° 0 mm 1 m/S 740 mmHg 97%
    18:00 -8°C° 0 mm 1 m/S 740 mmHg 97%
    19:00 -9°C° 0 mm 2 m/S 740 mmHg 97%
    20:00 -9°C° 0 mm 2 m/S 740 mmHg 97%
    21:00 -9°C° 0 mm 2 m/S 740 mmHg 97%
    22:00 -10°C° 0 mm 2 m/S 740 mmHg 97%
    23:00 -10°C° 0 mm 2 m/S 740 mmHg 97%

    27 Januar, Sonntag

    Zeit Temperatur Niederschläge Wind Luftdruck Luftfeuchtigkeit
    00:00 -10°C° 0 mm 2 m/S 740 mmHg 97%
    01:00 -10°C° 0 mm 2 m/S 740 mmHg 97%
    02:00 -9°C° 0 mm 1 m/S 740 mmHg 97%
    03:00 -10°C° 0 mm 2 m/S 740 mmHg 97%
    04:00 -9°C° 0 mm 2 m/S 740 mmHg 96%
    05:00 -9°C° 0 mm 2 m/S 740 mmHg 96%
    06:00 -9°C° 0 mm 2 m/S 740 mmHg 96%
    07:00 -9°C° 0 mm 2 m/S 740 mmHg 96%
    08:00 -9°C° 0 mm 2 m/S 740 mmHg 96%
    09:00 -10°C° 0 mm 3 m/S 740 mmHg 96%
    10:00 -9°C° 0 mm 3 m/S 740 mmHg 95%
    11:00 -9°C° 0 mm 3 m/S 740 mmHg 95%
    12:00 -9°C° 0 mm 3 m/S 740 mmHg 95%
    13:00 -8°C° 0 mm 3 m/S 740 mmHg 94%
    14:00 -8°C° 0 mm 3 m/S 740 mmHg 94%
    15:00 -8°C° 0 mm 3 m/S 740 mmHg 94%
    16:00 -9°C° 0 mm 3 m/S 741 mmHg 95%
    17:00 -9°C° 0 mm 3 m/S 741 mmHg 95%
    18:00 -9°C° 0 mm 3 m/S 741 mmHg 95%
    19:00 -10°C° 0 mm 3 m/S 741 mmHg 96%
    20:00 -11°C° 0 mm 4 m/S 742 mmHg 96%
    21:00 -12°C° 0 mm 3 m/S 742 mmHg 96%
    22:00 -12°C° 0 mm 3 m/S 742 mmHg 96%
    23:00 -13°C° 0 mm 3 m/S 743 mmHg 96%

    28 Januar, Montag

    Zeit Temperatur Niederschläge Wind Luftdruck Luftfeuchtigkeit
    00:00 -13°C° 0 mm 3 m/S 743 mmHg 96%
    01:00 -13°C° 0 mm 3 m/S 743 mmHg 96%
    02:00 -13°C° 0 mm 3 m/S 743 mmHg 96%
    03:00 -13°C° 0 mm 3 m/S 743 mmHg 96%
    04:00 -14°C° 0 mm 3 m/S 744 mmHg 96%
    05:00 -14°C° 0 mm 3 m/S 744 mmHg 96%
    06:00 -14°C° 0 mm 3 m/S 744 mmHg 95%
    07:00 -14°C° 0 mm 3 m/S 745 mmHg 95%
    08:00 -14°C° 0 mm 3 m/S 745 mmHg 95%
    09:00 -14°C° 0 mm 3 m/S 745 mmHg 95%
    10:00 -14°C° 0 mm 3 m/S 746 mmHg 95%
    11:00 -14°C° 0 mm 3 m/S 746 mmHg 94%
    12:00 -13°C° 0 mm 3 m/S 746 mmHg 94%
    13:00 -13°C° 0 mm 3 m/S 747 mmHg 94%
    14:00 -13°C° 0 mm 3 m/S 747 mmHg 93%
    15:00 -13°C° 0 mm 3 m/S 747 mmHg 93%
    16:00 -13°C° 0 mm 3 m/S 748 mmHg 93%
    17:00 -14°C° 0 mm 3 m/S 748 mmHg 93%
    18:00 -14°C° 0 mm 3 m/S 748 mmHg 93%
    19:00 -15°C° 0 mm 3 m/S 749 mmHg 93%
    20:00 -15°C° 0 mm 3 m/S 749 mmHg 93%
    21:00 -16°C° 0 mm 3 m/S 749 mmHg 94%
    22:00 -17°C° 0 mm 3 m/S 750 mmHg 94%
    23:00 -18°C° 0 mm 3 m/S 750 mmHg 95%
    Mehr zeigen